MST,Max TemperatureF,Mean TemperatureF,Min TemperatureF,Max Dew PointF,MeanDew PointF,Min DewpointF,Max Humidity, Mean Humidity, Min Humidity, Max Sea Level PressureIn, Mean Sea Level PressureIn, Min Sea Level PressureIn, Max VisibilityMiles, Mean VisibilityMiles, Min VisibilityMiles, Max Wind SpeedMPH, Mean Wind SpeedMPH, Max Gust SpeedMPH,PrecipitationIn, CloudCover, Events, WindDirDegrees
2012-11-1,51,43,35,39,36,31,100,72,44,30.09,29.95,29.86,10,10,7,31,6,39,0.12,7,Rain,169
2012-11-2,47,37,27,37,31,25,100,83,65,30.22,30.13,30.07,10,4,0,5,0,6,0.00,5,Fog,225
2012-11-3,48,39,29,38,33,28,100,81,61,30.29,30.23,30.14,10,10,7,7,1,9,T,6,Rain,35
2012-11-4,57,45,32,38,35,32,100,74,47,30.48,30.38,30.29,10,10,8,9,1,10,T,4,Rain,206
2012-11-5,58,43,28,42,33,27,100,78,55,30.50,30.41,30.34,10,7,0,6,1,7,0.00,2,Fog,13
2012-11-6,59,44,28,41,33,28,100,74,47,30.36,30.26,30.06,10,6,0,8,1,9,0.00,3,Fog,223
2012-11-7,49,38,26,38,33,25,96,81,65,30.04,29.96,29.86,10,10,6,14,4,18,T,4,,283
2012-11-8,43,35,26,37,31,23,100,88,76,29.88,29.64,29.53,10,7,0,13,3,16,0.26,7,Fog-Rain-Snow-Thunderstorm,343
2012-11-9,29,23,16,27,23,14,92,85,78,29.79,29.66,29.58,10,6,1,12,4,17,0.04,7,Snow,277
2012-11-10,27,19,11,18,14,8,92,80,68,30.14,29.95,29.79,10,10,8,12,3,14,0.00,4,,278
2012-11-11,25,16,7,16,12,4,91,77,62,30.49,30.34,30.17,10,9,4,8,2,9,T,4,Snow,101
2012-11-12,29,24,18,27,23,14,92,85,77,30.45,30.34,30.25,10,5,1,12,1,15,0.06,8,Snow,150
2012-11-13,35,32,28,32,29,25,100,93,85,30.39,30.26,30.15,10,8,2,3,0,6,0.01,8,Snow,105
2012-11-14,38,30,22,32,29,20,100,88,76,30.36,30.23,30.14,10,6,0,7,1,9,0.04,7,Fog-Snow,296
2012-11-15,35,29,22,30,25,19,100,91,82,30.36,30.24,30.05,10,4,0,6,1,7,0.00,7,Fog,45
2012-11-16,42,35,27,37,32,26,100,90,79,30.13,30.04,29.97,10,8,4,9,1,13,0.01,7,,106
2012-11-17,48,40,31,37,35,30,100,80,60,30.01,29.82,29.66,10,9,5,24,9,30,0.46,7,Rain,144
2012-11-18,42,36,29,38,29,24,96,78,59,30.08,29.91,29.69,10,9,2,22,6,28,0.23,5,Rain-Snow,168
2012-11-19,44,39,33,36,32,28,89,80,70,30.14,30.06,30.00,10,9,2,24,11,32,0.17,8,Rain-Snow,153
2012-11-20,45,43,40,39,37,33,100,83,65,30.00,29.91,29.76,10,10,4,28,11,35,0.44,8,Rain,155
2012-11-21,42,33,24,39,31,20,96,86,75,30.22,29.87,29.72,10,5,0,25,7,32,1.29,8,Fog-Rain-Snow-Thunderstorm,226
2012-11-22,35,25,15,24,19,12,92,72,52,30.59,30.48,30.27,10,10,10,14,1,20,0.00,0,,28
2012-11-23,37,28,19,29,23,17,92,78,64,30.55,30.45,30.30,10,10,8,6,0,6,0.00,1,,100
2012-11-24,36,33,30,34,32,29,100,96,92,30.27,30.15,30.00,10,5,1,5,1,6,0.35,8,Rain-Snow,35
2012-11-25,34,25,16,32,25,13,100,78,56,30.28,30.09,29.99,10,8,2,14,5,18,0.09,6,Snow,332
2012-11-26,32,22,11,22,15,8,92,78,63,30.38,30.33,30.28,10,10,10,9,0,13,0.00,0,,53
2012-11-27,38,28,17,27,22,14,96,80,64,30.35,30.26,30.13,10,9,1,6,0,6,0.00,3,,110
2012-11-28,37,28,19,34,23,16,100,89,77,30.21,30.06,29.88,10,6,0,12,2,16,0.08,5,Fog-Rain,146
2012-11-29,44,39,34,34,33,32,92,79,65,30.02,29.93,29.82,10,10,5,24,7,37,0.10,6,Rain,145
2012-11-30,40,36,32,37,35,30,100,93,85,29.80,29.72,29.68,10,6,0,18,5,26,1.55,8,Fog-Rain-Snow,148